Regional Weather Roundup
Issued by NWS San Diego, CA

Home | Current Version | Previous Version | Text Only | Print | Product List | Glossary On
Versions: 1 2 3 4 5 6 7 8 9 10 11 12 13 14 15 16 17 18 19 20 21 22 23 24 25 26 27
000
ASUS46 KSGX 281411
RWRSGX

SAN DIEGO HOURLY WEATHER ROUNDUP
NATIONAL WEATHER SERVICE SAN DIEGO CA
700 AM PDT THU JUL 28 2016

NOTE: "FAIR" INDICATES FEW OR NO CLOUDS BELOW 12,000 FEET WITH NO
SIGNIFICANT WEATHER AND/OR OBSTRUCTIONS TO VISIBILITY.

CAZ042-043-060-061-PZZ750-775-281500-

GREATER SAN DIEGO AREA

CITY           SKY/WX    TMP DP  RH WIND       PRES   REMARKS
LINDBERGH FLD  MOSUNNY   69  67  93 NW3       29.91S
POINT LOMA       N/A     69  66  90 NW7         N/A
NATIONAL CITY    N/A     73  69  88 CALM      29.92R
CHULA VISTA      N/A     70  67  91 CALM      29.83R
IMPERIAL BEACH MOSUNNY   68  64  87 CALM      29.91R
BROWN FIELD    CLOUDY    70  67  90 CALM      29.92R FOG
MIRAMAR MCAS   MOSUNNY   72  64  76 E3        29.91S
MONTGOMERY FLD SUNNY     71  65  81 CALM      29.92R

$$

NORTH SAN DIEGO COUNTY

CITY           SKY/WX    TMP DP  RH WIND       PRES   REMARKS
CAMP PENDLETON CLOUDY    68  62  81 E3        29.91R HAZE
OCEANSIDE AP   CLOUDY    68  63  84 CALM      29.90R
OCEANSIDE HBR    N/A     70  67  90 CALM      29.93R
VISTA            N/A     67  61  81 CALM      29.89R
CARLSBAD       SUNNY     70  68  93 CALM      29.90S
DEL MAR          N/A     68  67  96 CALM      29.92S
LA JOLLA SCRIP   N/A     69  68  97 CALM      29.89S
FALLBROOK        N/A     67  66  98 CALM      29.89R
ESCONDIDO        N/A     70  64  82 CALM      29.92R
SAN MARCOS       N/A     67  59  74 CALM      29.93R
POWAY            N/A     67  61  83 CALM      29.91S

$$

EAST SAN DIEGO COUNTY

CITY           SKY/WX    TMP DP  RH WIND       PRES   REMARKS
RAMONA         SUNNY     67  50  54 CALM      29.95R
SANTEE LAKES     N/A     68  63  84 CALM      29.89R
LA MESA          N/A     67  65  93 CALM      29.83S
JAMUL            N/A     66  64  92 CALM      29.89R
DESCANSO N       N/A      0   0 100 CALM      29.72S
MT. LAGUNA OBS   N/A     73  38  28 NW3       29.78R
CAMPO            N/A     65  47  52 CALM      29.97R

$$

ORANGE COUNTY AND THE LOS ANGELES BASIN

CITY           SKY/WX    TMP DP  RH WIND       PRES   REMARKS
JOHN WAYNE AP  MOSUNNY   69  67  93 S6        29.91R
LAKE FOREST FR   N/A     68  55  62 CALM      29.78R
HUNTINGTON BCH   N/A     69  68  98 CALM      29.93R
LOS ALAMITOS   SUNNY     69  67  90 CALM      29.91R
FULLERTON      SUNNY     72  66  81 CALM      29.90R
LONG BEACH     SUNNY     71  64  78 W3        29.91R
L.A. AP        MOSUNNY   70  65  84 W3        29.91R
L.A. DOWNTOWN  SUNNY     70  64  81 CALM      29.90R

$$

THE INLAND EMPIRE

CITY           SKY/WX    TMP DP  RH WIND       PRES   REMARKS
CORONA         SUNNY     67  56  67 CALM      29.92R
CHINO          MOSUNNY   71  56  58 CALM      29.93R
ONTARIO        MOSUNNY   75  54  47 SW3       29.92R
SAN BERNARDINO FAIR      75  46  35 CALM      29.94R
RIVERSIDE AP   SUNNY     74  49  41 CALM      29.92R
MORENO VALLEY    N/A     72  51  48 CALM      28.06R
MARCH ARB      SUNNY     74  49  41 CALM      29.94R
HORSETHIEF CYN   N/A     71  42  34 CALM      29.91R
PERRIS           N/A     72  52  48 CALM      29.95R
HEMET EAST       N/A     74  46  36 CALM      29.77R
FRENCH VALLEY  FAIR      70  52  52 CALM      29.95R
TEMECULA         N/A     70  56  61 CALM      29.90R

$$

SAN BERNARDINO AND RIVERSIDE COUNTY MOUNTAINS

CITY           SKY/WX    TMP DP  RH WIND       PRES   REMARKS
BIG BEAR AP    SUNNY     54  43  66 CALM      30.31S
PINE COVE        N/A     73  48  41 CALM      29.81R

$$

SOUTHERN DESERT INCLUDING THE COACHELLA VALLEY

CITY           SKY/WX    TMP DP  RH WIND       PRES   REMARKS
PALM SPRINGS   SUNNY     92  55  28 CALM      29.79R
THOUSAND PALMS   N/A     94  48  20 NW15      29.72R
PALM DESERT      N/A     87  60  39 CALM        N/A
THERMAL        SUNNY     94  46  19 NW10      29.71R
BLYTHE         MOSUNNY   91  62  37 S13       29.76R
IMPERIAL AP    SUNNY     89  70  53 SE5       29.73R
EL CENTRO NAS  MOSUNNY   89  65  44 CALM      29.75R
YUMA AZ        PTSUNNY   91  59  33 SE13      29.78R
MEXICALI       MOSUNNY   86  64  48 E6        29.77R

$$

UPPER DESERT

CITY           SKY/WX    TMP DP  RH WIND       PRES   REMARKS
VICTORVILLE AP SUNNY     79  45  29 S8        29.99S
HESPERIA         N/A     76  49  38 W3        29.90R
PALMDALE       MOSUNNY   82  44  26 S10       29.97R
LANCASTER      MOSUNNY   83  43  24 SW3       29.95R
DAGGETT        SUNNY     84  40  21 W13       29.90R
29 PALMS N     SUNNY     89  39  17 W13       29.96R
NEEDLES        MOSUNNY   96  59  29 CALM      29.79R HX  95

$$

REGIONAL REPORTS

CITY           SKY/WX    TMP DP  RH WIND       PRES   REMARKS
SANTA BARBARA  PTCLDY    64  62  93 E5        29.90R
SANDBERG       SUNNY     80  38  22 N12G17    30.13R
LAS VEGAS NV   MOSUNNY   94  45  18 CALM      29.84R
PHOENIX AZ     MOSUNNY   91  61  36 SE12G21   29.88R
TIJUANA        PTSUNNY   68  63  83 CALM      29.93
ENSENADA NW      N/A     70  32  24 E6        29.88R

$$

OFFSHORE ISLANDS

CITY           SKY/WX    TMP DP  RH WIND       PRES   REMARKS
CATALINA ARPT  SUNNY     76  35  22 CALM      29.96R
SAN NICOLAS IS PTCLDY    64  53  67 E3        29.92R

$$

MARINE AND OFFSHORE BUOY REPORTS

STATION/POSITION SKY/WX   TEMP    WIND        PRES    SWELL
                          AIR SEA DIR/SP/G            HT/PER/DIR
                          (F)     (DEG/KT/KT) (MB)    (FT/S/D)
TANNER BANKS               61 65  300/ 12/ 16 1013.2R   5/320/11
S CLEMENTE BASIN           67 70  270/  8/ 10 1012.6R   3/190/ 8
SAN NICOLAS IS.               63                N/A     3/310/11
SO. S. ROSA ISLA           61 67  310/ 14/ 17 1012.6R   5/310/10
W. S. BARBARA CH           58 64  310/ 14/ 16 1012.7R   5/320/10
M. S. BARBARA CH                  180/  6/  8 1013.0R
S. MONICA BASIN            67 69  180/  6/  8 1012.3R
S PEDRO CHANNEL               72                N/A     2/190/14
OCEANSIDE OFFSHR              76                N/A     2/190/13
TORREY PINES OTR              76                N/A     2/200/14
LA JOLLA 1                 70 70  120/  1/  3 1012.5R
SAN DIEGO BAY                 78              1012.8S
POINT LOMA SOUTH              73                N/A     2/190/13

$$





USA.gov is the U.S. government's official web portal to all federal, state and local government web resources and services.